DW1653 Weather Reports


Display with metric or nautical units.
time (UTC)temp
F
wind
direction
speed
MPH
gust
MPH
rain 1hr
in
rain 24hr
in
rain mn
in
humidity
%
barometer
mb
20200712063330 74 267 0.0 0.0 0.00 0.06 0.00 83 1004.9
20200712062327 74 269 0.0 5.0 0.00 0.06 0.00 82 1004.8
20200712061325 74 273 0.0 4.0 0.00 0.06 0.00 82 1004.7
20200712060320 74 273 1.0 6.0 0.00 0.06 0.00 82 1004.8
20200712055322 75 277 0.0 5.0 0.00 0.06 0.00 82 1004.9
20200712054313 75 281 1.0 8.0 0.00 0.06 0.00 82 1005.0
20200712053311 75 283 0.0 8.0 0.00 0.06 0.00 83 1004.9
20200712052329 75 291 0.0 6.0 0.00 0.06 0.00 84 1004.8
20200712051328 75 296 0.0 6.0 0.00 0.06 0.00 85 1004.8
20200712050322 75 292 1.0 10.0 0.00 0.06 0.00 86 1004.8
20200712045317 75 297 2.0 14.0 0.00 0.06 0.00 88 1004.9
20200712044315 75 275 0.0 6.0 0.00 0.06 0.00 90 1004.9
20200712043330 75 276 0.0 1.0 0.00 0.06 0.00 91 1004.9
20200712042325 75 277 1.0 9.0 0.00 0.06 0.00 91 1004.9
20200712041319 75 273 1.0 7.0 0.00 0.06 0.00 92 1004.8
20200712040320 75 274 0.0 8.0 0.00 0.06 0.00 92 1004.9
20200712035332 75 281 1.0 8.0 0.00 0.06 0.06 93 1004.8
20200712034327 76 271 3.0 7.0 0.00 0.06 0.06 93 1004.9
20200712033326 76 268 2.0 8.0 0.00 0.06 0.06 93 1004.8
20200712032321 76 268 0.0 7.0 0.00 0.06 0.06 93 1004.9
20200712031316 76 270 0.0 9.0 0.00 0.06 0.06 93 1004.7
20200712030318 76 270 2.0 6.0 0.00 0.06 0.06 93 1004.6
20200712025334 76 268 0.0 0.0 0.00 0.06 0.06 93 1004.6
20200712024328 76 268 0.0 4.0 0.01 0.06 0.06 93 1004.5
20200712023323 76 267 0.0 6.0 0.01 0.06 0.06 93 1004.4
20200712022325 77 271 0.0 0.0 0.01 0.06 0.06 93 1004.4
20200712021320 77 278 0.0 6.0 0.01 0.06 0.06 93 1004.5
20200712020315 77 213 0.0 0.0 0.01 0.06 0.06 93 1004.5
20200712015333 77 213 0.0 1.0 0.01 0.06 0.06 93 1004.4
20200712014334 77 213 0.0 0.0 0.00 0.05 0.05 93 1004.3
20200712013322 77 213 0.0 0.0 0.00 0.05 0.05 92 1004.2
20200712012321 77 213 0.0 3.0 0.00 0.05 0.05 92 1004.1
20200712011321 77 212 0.0 0.0 0.00 0.05 0.05 92 1004.1
20200712010321 77 211 0.0 3.0 0.00 0.05 0.05 92 1004.0
20200712005329 78 200 1.0 7.0 0.01 0.05 0.05 92 1003.9
20200712004326 78 217 1.0 6.0 0.05 0.05 0.05 92 1003.8
20200712003321 78 204 0.0 6.0 0.05 0.05 0.05 92 1003.8
20200712002315 78 213 0.0 5.0 0.05 0.05 0.05 92 1003.9
20200712001315 78 212 0.0 5.0 0.05 0.05 0.05 91 1003.8
20200712000328 79 219 0.0 3.0 0.05 0.05 0.05 91 1003.7
20200711235321 79 239 4.0 16.0 0.03 0.03 0.03 91 1003.6
20200711233343 79 184 4.0 12.0 0.00 0.00 0.00 92 1003.5
20200711232345 78 192 3.0 11.0 0.00 0.00 0.00 91 1003.6
20200711231327 78 201 2.0 10.0 0.00 0.00 0.00 90 1003.4
20200711230318 78 175 1.0 10.0 0.00 0.00 0.00 90 1003.2
20200711225320 79 205 4.0 12.0 0.00 0.00 0.00 89 1003.2
20200711224315 80 182 5.0 11.0 0.00 0.00 0.00 87 1003.2
20200711223332 81 177 6.0 16.0 0.00 0.00 0.00 85 1003.0
20200711222326 81 182 4.0 16.0 0.00 0.00 0.00 86 1003.0
20200711221327 82 157 5.0 16.0 0.00 0.00 0.00 87 1002.9
20200711220320 81 210 4.0 16.0 0.00 0.00 0.00 87 1002.9
20200711215315 81 210 4.0 16.0 0.00 0.00 0.00 86 1003.0
20200711213322 81 188 5.0 16.0 0.00 0.00 0.00 86 1003.0
20200711212321 81 209 6.0 16.0 0.00 0.00 0.00 86 1003.0
20200711210322 81 237 5.0 15.0 0.00 0.00 0.00 87 1003.2
20200711205338 81 192 4.0 15.0 0.00 0.00 0.00 87 1003.2
20200711204326 82 178 4.0 15.0 0.00 0.00 0.00 86 1003.4
20200711203324 82 186 5.0 15.0 0.00 0.00 0.00 87 1003.4
20200711202319 81 185 5.0 15.0 0.00 0.00 0.00 86 1003.5
20200711201336 82 219 6.0 13.0 0.00 0.00 0.00 86 1003.6
20200711200339 82 167 6.0 12.0 0.00 0.00 0.00 84 1003.6
20200711195344 83 193 6.0 12.0 0.00 0.00 0.00 85 1003.7
20200711194324 84 190 4.0 12.0 0.00 0.00 0.00 85 1003.7
20200711193321 84 184 5.0 13.0 0.00 0.00 0.00 85 1003.7
20200711192335 84 209 5.0 13.0 0.00 0.00 0.00 85 1003.7
20200711191329 83 222 6.0 14.0 0.00 0.00 0.00 84 1003.6
20200711185332 86 176 5.0 4.0 0.00 0.01 0.00 81 1003.8
20200711184327 86 175 5.0 11.0 0.00 0.01 0.00 81 1003.8
20200711183322 85 201 6.0 11.0 0.00 0.01 0.00 83 1003.9
20200711182323 84 235 4.0 12.0 0.00 0.01 0.00 86 1004.1
20200711181316 83 202 5.0 11.0 0.00 0.01 0.00 89 1004.3
20200711180330 83 201 0.0 7.0 0.00 0.01 0.00 89 1004.3
20200711174316 82 193 2.0 14.0 0.00 0.01 0.00 89 1004.6
20200711173330 82 179 2.0 14.0 0.00 0.01 0.00 88 1004.8
20200711172324 83 194 2.0 14.0 0.00 0.01 0.00 86 1004.9
20200711171325 83 190 2.0 14.0 0.00 0.01 0.00 86 1004.9
20200711170320 84 198 2.0 14.0 0.00 0.01 0.00 81 1004.9
20200711165334 85 189 3.0 14.0 0.00 0.44 0.00 81 1005.0
20200711164330 85 227 6.0 14.0 0.00 0.44 0.00 81 1005.0
20200711163328 85 146 4.0 13.0 0.00 0.44 0.00 83 1005.0
20200711162322 85 202 4.0 13.0 0.00 0.44 0.00 82 1005.2
20200711161317 85 174 5.0 12.0 0.00 0.44 0.00 83 1005.3
20200711160314 84 198 5.0 15.0 0.00 0.44 0.00 84 1005.2
20200711155330 84 207 5.0 18.0 0.00 1.03 0.00 84 1005.2
20200711154324 84 188 5.0 13.0 0.00 1.03 0.00 84 1005.2
20200711153319 84 166 4.0 14.0 0.00 1.03 0.00 84 1005.2
20200711152317 84 240 4.0 14.0 0.00 1.03 0.00 83 1005.3
20200711151331 85 188 3.0 14.0 0.00 1.03 0.00 83 1005.4
20200711150325 84 167 4.0 10.0 0.00 1.03 0.00 84 1005.4
20200711145330 84 175 3.0 8.0 0.00 1.08 0.00 85 1005.4
20200711144345 84 191 2.0 8.0 0.00 1.08 0.00 83 1005.5
20200711143323 85 171 3.0 8.0 0.00 1.08 0.00 84 1005.5
20200711142339 84 171 1.0 5.0 0.00 1.08 0.00 86 1005.4
20200711141330 83 207 5.0 9.0 0.00 1.08 0.00 85 1005.6
20200711140326 83 167 2.0 9.0 0.00 1.08 0.00 86 1005.6
20200711134327 82 252 1.0 7.0 0.00 1.17 0.00 86 1005.5
20200711133324 82 211 1.0 7.0 0.00 1.17 0.00 86 1005.6
20200711132323 81 268 1.0 6.0 0.00 1.17 0.00 89 1005.6
20200711131316 80 197 1.0 6.0 0.00 1.17 0.00 93 1005.6
20200711130314 80 200 1.0 6.0 0.00 1.17 0.00 93 1005.5
20200711125327 80 204 1.0 6.0 0.00 1.26 0.00 94 1005.6
20200711124324 79 225 0.0 6.0 0.00 1.26 0.00 94 1005.5
20200711123318 78 215 1.0 5.0 0.00 1.26 0.00 95 1005.5
20200711122321 78 217 0.0 5.0 0.00 1.26 0.00 95 1005.6
20200711120317 77 216 0.0 9.0 0.00 1.26 0.00 95 1005.4
20200711115316 77 220 0.0 9.0 0.00 1.26 0.00 95 1005.5
20200711114315 77 213 1.0 4.0 0.00 1.26 0.00 95 1005.4
20200711113329 77 213 1.0 4.0 0.00 1.26 0.00 95 1005.3
20200711112324 77 238 1.0 7.0 0.00 1.26 0.00 95 1005.3
20200711111325 76 211 1.0 7.0 0.00 1.26 0.00 95 1005.2
20200711110321 76 221 1.0 7.0 0.00 1.26 0.00 95 1005.3
20200711105317 75 215 0.0 2.0 0.00 1.26 0.00 95 1005.1
20200711104318 75 215 0.0 0.0 0.00 1.26 0.00 95 1005.0
20200711103333 75 215 0.0 0.0 0.00 1.26 0.00 94 1004.9
20200711102327 75 215 0.0 0.0 0.00 1.26 0.00 94 1004.9
20200711101322 75 215 0.0 0.0 0.00 1.26 0.00 94 1005.0
20200711100320 75 215 0.0 0.0 0.00 1.26 0.00 94 1004.9
20200711095314 75 215 0.0 0.0 0.00 1.26 0.00 94 1005.0
20200711094334 75 215 0.0 0.0 0.00 1.26 0.00 94 1005.2
20200711093330 75 215 0.0 6.0 0.00 1.26 0.00 94 1005.2
20200711092327 75 216 0.0 0.0 0.00 1.26 0.00 94 1005.3
20200711091318 75 216 0.0 0.0 0.00 1.26 0.00 94 1005.3
20200711090332 75 215 0.0 6.0 0.00 1.26 0.00 94 1005.3
20200711085331 75 220 0.0 5.0 0.00 1.26 0.00 93 1005.3
20200711084324 75 219 0.0 4.0 0.00 1.26 0.00 93 1005.2
20200711083324 75 218 0.0 7.0 0.00 1.26 0.00 93 1005.2
20200711082320 75 221 0.0 4.0 0.00 1.26 0.00 92 1005.3
20200711081319 74 220 1.0 4.0 0.00 1.26 0.00 92 1005.3
20200711080314 75 221 0.0 0.0 0.00 1.26 0.00 92 1005.4
20200711075314 75 221 0.0 0.0 0.00 1.26 0.00 92 1005.4
20200711074333 75 221 0.0 1.0 0.00 1.26 0.00 92 1005.4
20200711073325 75 221 0.0 6.0 0.00 1.26 0.00 92 1005.4
20200711072322 74 240 0.0 4.0 0.00 1.26 0.00 92 1005.5
20200711071320 74 251 0.0 6.0 0.00 1.26 0.00 91 1005.5
20200711070315 74 244 0.0 7.0 0.00 1.26 0.00 91 1005.3
20200711065329 74 213 0.0 6.0 0.00 1.26 0.00 91 1005.4
20200711064327 74 213 2.0 9.0 0.00 1.26 0.00 91 1005.4